FENGYUN 1C DEB, 31021

Orbit data source: Space-Track

FENGYUN 1C DEB, 31021 is space debris in SSO originally from a launch on Mon, 10 May 1999 UTC launched from the Taiyaun Space Center, China (TSC). Fengyun 1C debris stems from the Chinese weather satellite Fengyun-1C, which was intentionally destroyed by a Chinese anti-satellite missile in 2007. This event dramatically increased the amount of space debris, with thousands of trackable fragments posing hazards to satellites and human spaceflight. The Fengyun 1C debris cloud has become a focal point in discussions about space sustainability and the need for international regulations to prevent the creation of new debris.

Loading next visibility...
Identifier
31021, 1999-025BDP
Orbit
SSO
Country
Flag of CNCN / PRC
Related business
Manufacturer
Unknown
Mission
Spacecraft
Bus & Motor
Unknown
Mass
Unknown
Launch date (UTC)
1999-05-10 (27 years ago)
Launch vehicle
Unknown
Launch site
Taiyaun Space Center, China (TSC)
Object type
Payload
Rocket body
Debris
Shape & HBR
Unknown shape, 0.1 m
Radar Cross Section
Small (<0.1 m²)

Expand to show TLE details & history
Last TLE update: 2 days ago

TLE from 2 days ago
0 FENGYUN 1C DEB
1 31021U 99025BDP 26174.59505603  .00001995  00000-0  16267-3 0  9994
2 31021  98.3644 297.0714 0258841 346.2079  13.2148 14.78219118762794
Epoch: 2026-06-23T14:16Z
TLE epoch observation values (Epoch: 2026-06-23T14:16:52.840Z)
Latitude
-0.00013°
Longitude
171.08688°
Altitude
461.456 km
Speed
7.731 km/s
True Right ascension
19h 48m 17s
True Declination
0° 00' 00"
Sunlit
Object was in full shadow at epoch
Visualization orbit readout
Latitude
Unknown
Longitude
Unknown
Altitude
Unknown
Speed
Unknown
Apparent Right ascension
Unknown
Apparent Declination
Unknown
Sunlit
N/A
Visualization observer readout
Local Sidereal Time
14:56:01
Azimuth
Unknown
Elevation
Unknown
Doppler factor
Unknown
Orbital elements
Apogee altitude
813.464 km
Perigee altitude
450.561 km
Semi-major axis
7,010.15 km
Eccentricity
0.02588
Inclination
98.3644°
RAAN
297.0714°
Arg. of periapsis
346.2079°
True anomaly
13.91486°
Mean anomaly
13.2148°
Eccentric anomaly
13.56259°
Mean motion
3.69787 °/min
Orbital period
97.35 mins
BSTAR
0.00016267
Loading maneuver chart data...
Computing Atmospheric mass density...

Documentation

Showing up to 5 results
|